Location: Unspecified
(41.1637°N, 24.2901°E)
Time: 14:43:37
(UTC+01:00)

ISS - Pass Details

Date: 27 November 2020
Orbit: 418 x 421 km, 51.6° (Epoch: 29 November)

Event Time Altitude Azimuth Distance (km) Brightness Sun altitude
Rises 17:24:09 0° 288° (WNW) 2,361 1.1 -16.3°
Reaches altitude 10° 17:26:55 10° 313° (NW) 1,498 -0.5 -16.8°
Maximum altitude 17:28:59 15° 351° (N) 1,224 -1.5 -17.2°
Enters shadow 17:29:36 15° 4° (N) 1,252 -1.5 -17.3°
